BREEZE-M R/B

基本信息
目录编号:
36359
目录名称:
BREEZE-M R/B
国际标识:
2010-002B
轨道中心:
EARTH
物体状态:
在轨
发射日期:
2010-01-28 UTC
国别:
俄罗斯(独联体) (CIS)
轨道信息
数据来源: 国际轨道数据
星历时间: 2026-07-13T21:02:56+0800
半长轴: 41139.93km
偏心率: 0.0210833
轨道倾角: 10.940°
近地点辐角: 255.986°
升交点赤经: 36.205°
平近点角: 105.138°
近地点: 33894.427km
远地点: 35629.159km
周期: 1384.060分钟
每日圈数: 1.040417
详细信息
发射场:
TTMTR
轨道高度:
MEO
数据来源:
AOE Integration Group
参考系:
TEME
时间系统:
UTC
历元类型:
SGP4
2D轨道图
3D轨道图
轨道高度分析图
轨道倾角分析图
轨道综合分析图
查看轨道综合分析图